TimeCST,TemperatureF,Dew PointF,Humidity,Sea Level PressureIn,VisibilityMPH,Wind Direction,Wind SpeedMPH,Gust SpeedMPH,PrecipitationIn,Events,Conditions,WindDirDegrees,DateUTC
12:51 AM,66.0,61.0,84,30.16,10.0,ESE,4.6,-,N/A,,Partly Cloudy,120,2012-11-11 06:51:00
1:51 AM,68.0,60.1,76,30.15,10.0,SE,8.1,-,N/A,,Scattered Clouds,130,2012-11-11 07:51:00
2:51 AM,69.1,60.1,73,30.15,10.0,SE,10.4,-,N/A,,Partly Cloudy,130,2012-11-11 08:51:00
3:51 AM,69.1,57.9,68,30.14,10.0,SE,9.2,-,N/A,,Partly Cloudy,130,2012-11-11 09:51:00
4:51 AM,68.0,59.0,73,30.14,10.0,ESE,6.9,-,N/A,,Clear,110,2012-11-11 10:51:00
5:51 AM,68.0,60.1,76,30.15,10.0,SE,6.9,-,N/A,,Clear,130,2012-11-11 11:51:00
6:51 AM,69.1,59.0,70,30.17,10.0,SE,8.1,-,N/A,,Clear,130,2012-11-11 12:51:00
7:51 AM,72.0,62.1,71,30.17,10.0,SE,8.1,-,N/A,,Clear,130,2012-11-11 13:51:00
8:51 AM,75.9,62.1,62,30.17,10.0,SE,10.4,-,N/A,,Clear,130,2012-11-11 14:51:00
9:51 AM,78.1,63.0,60,30.19,10.0,SE,16.1,21.9,N/A,,Clear,130,2012-11-11 15:51:00
10:51 AM,79.0,63.0,58,30.17,10.0,SE,15.0,25.3,N/A,,Clear,130,2012-11-11 16:51:00
11:51 AM,79.0,63.0,58,30.16,10.0,SSE,20.7,26.5,N/A,,Clear,150,2012-11-11 17:51:00
12:51 PM,79.0,63.0,58,30.14,10.0,SE,13.8,23.0,N/A,,Clear,130,2012-11-11 18:51:00
1:51 PM,78.1,63.0,60,30.12,10.0,SE,17.3,28.8,N/A,,Clear,130,2012-11-11 19:51:00
2:51 PM,77.0,64.9,66,30.12,10.0,SE,17.3,24.2,N/A,,Scattered Clouds,130,2012-11-11 20:51:00
3:51 PM,75.0,64.0,69,30.12,10.0,SE,15.0,23.0,N/A,,Clear,130,2012-11-11 21:51:00
4:51 PM,73.0,63.0,71,30.12,10.0,SE,15.0,-,N/A,,Clear,130,2012-11-11 22:51:00
5:51 PM,72.0,64.0,76,30.14,10.0,SE,11.5,-,N/A,,Scattered Clouds,140,2012-11-11 23:51:00
6:51 PM,72.0,64.0,76,30.13,10.0,SE,11.5,21.9,N/A,,Clear,130,2012-11-12 00:51:00
7:51 PM,72.0,64.0,76,30.14,10.0,SE,12.7,20.7,N/A,,Clear,130,2012-11-12 01:51:00
8:51 PM,72.0,64.9,78,30.15,10.0,SE,15.0,21.9,N/A,,Clear,140,2012-11-12 02:51:00
9:51 PM,73.0,64.9,76,30.14,10.0,SE,13.8,24.2,N/A,,Clear,140,2012-11-12 03:51:00
10:51 PM,73.0,66.0,79,30.13,10.0,SE,16.1,25.3,N/A,,Clear,140,2012-11-12 04:51:00
11:51 PM,73.0,66.0,79,30.12,10.0,SE,18.4,27.6,N/A,,Clear,140,2012-11-12 05:51:00